Regional Weather Roundup
Issued by NWS

Home | Current Version | Previous Version | Text Only | Print | Product List | Glossary Off
Versions: 1 2 3 4 5 6 7 8 9 10 11 12 13 14 15 16 17 18 19 20 21 22 23 24 25 26 27 28 29 30 31 32 33 34 35 36 37 38 39 40 41 42 43 44 45 46 47 48 49 50

000
ASUS43 KIND 030709
RWRIN

WEATHER ROUNDUP FOR INDIANA
NATIONAL WEATHER SERVICE INDIANAPOLIS IN
300 AM EDT THU SEP 03 2015

NOTE: "FAIR" INDICATES FEW OR NO CLOUDS BELOW 12,000 FEET WITH NO
SIGNIFICANT WEATHER AND/OR OBSTRUCTIONS TO VISIBILITY.

* - STATION DOES NOT REPORT WEATHER SUCH AS PRECIPITATION OR FOG.

+ - STATION NOT QUALITY CONTROLLED BY THE NATIONAL WEATHER SERVICE.
    USE DATA WITH CAUTION...ESPECIALLY DEWPOINT AND RELATIVE
    HUMIDITY OBSERVATIONS.

INZ001>003-010>013-019-020-030800-
NORTHWEST INDIANA

CITY           SKY/WX    TMP DP  RH WIND       PRES   REMARKS
GARY /AIRPORT/ PTCLDY    76  68  75 S3        29.97F
KNOX *+        PTCLDY    72  70  94 S5        29.98S
LA PORTE +     PTCLDY    72  72 100 SW3       29.99S
MICHIGAN CITY+ PTCLDY    72  66  83 CALM      29.98F
MONTICELLO +   PTCLDY    72  70  94 S5        29.99F
RENSSELAER +   MOCLDY    72  72 100 CALM      29.99F
VALPARAISO     PTCLDY    73  68  84 CALM      29.99F

$$

LMZ046-743>745-030800-
SOUTHERN LAKE MICHIGAN

STATION/POSITION TIME  TEMP    WIND        PRES    WAVE
                       AIR SEA DIR/SP/G            HT
                 (UTC) (F)     (DEG/KT/KT) (MB)    (FT)
BURNS HARBOR     0600   76     190/  9/ 12 1015.6R
MICHIGAN CITY    0600   78     170/ 11/ 13   N/A
5NW MICH CITY    0700   75 73  220/  8/  8   N/A     1

$$

INZ004-005-014>016-021>024-030800-
NORTH CENTRAL INDIANA

CITY           SKY/WX    TMP DP  RH WIND       PRES   REMARKS
GOSHEN         PTCLDY    72  68  87 S3        29.99F
LOGANSPORT +   CLEAR     68  63  83 CALM      30.01S
PERU/GRISSOM   PTCLDY    71  67  88 SW3       29.99F
ROCHESTER +    PTCLDY    77  70  78 SW3       30.00F
SOUTH BEND     PTCLDY    73  68  84 SW6       29.98F
WARSAW +       PTCLDY    70  68  94 CALM      29.99F

$$

INZ006>009-017-018-025>027-030800-
NORTHEAST INDIANA

CITY           SKY/WX    TMP DP  RH WIND       PRES   REMARKS
ANGOLA *+      CLOUDY    70  61  73 CALM      30.00S VSB 1/4
AUBURN +       PTCLDY    70  66  88 CALM      30.01S FOG
FORT WAYNE     MOCLDY    70  67  90 CALM      30.00F
HUNTINGTON +   MOCLDY    72  66  83 CALM      30.00S

$$

INZ028-029-035-036-043>045-051>053-030800-
WEST CENTRAL INDIANA

CITY           SKY/WX    TMP DP  RH WIND       PRES   REMARKS
CRAWFORDSVL +  CLEAR     63  63 100 CALM      30.01F FOG
GREENCASTLE +  CLEAR     66  63  88 CALM      30.02F FOG
LAFAYETTE      CLEAR     69  66  90 CALM      29.99F
TERRE HAUTE    CLEAR     65  64  97 CALM      30.00F

$$

INZ030>032-037>040-046>048-054>057-064-065-030800-
CENTRAL INDIANA

CITY           SKY/WX    TMP DP  RH WIND       PRES   REMARKS
FISHERS *+     CLEAR     68  68 100 CALM      30.01F
FRANKFORT +    CLEAR    N/A N/A N/A CALM      30.03F HAZE
GREENWOOD *+   CLEAR     66  64  94 CALM      30.02F
INDIANAPOLIS   CLEAR     71  68  90 W6        30.00F
-EAGLE CREEK   CLEAR     71  69  93 CALM      30.01F
KOKOMO *+      PTCLDY    68  63  83 SW3       30.01F
MARION +       PTCLDY    67  61  82 CALM      30.01F
MT COMFORT *+  CLEAR     68 N/A N/A CALM      30.02F
SHELBYVILLE    CLEAR     67  64  90 CALM      30.01F FOG
ZIONSVILLE +   CLEAR     65  62  89 CALM      30.03S FOG

$$

INZ033-034-041-042-049-050-058-059-030800-
EAST CENTRAL INDIANA

CITY           SKY/WX    TMP DP  RH WIND       PRES   REMARKS
MUNCIE         CLEAR     68  66  93 W3        30.01F

$$

INZ060-061-067>069-081>083-085>088-030800-
SOUTHWEST INDIANA

CITY           SKY/WX    TMP DP  RH WIND       PRES   REMARKS
EVANSVILLE     CLEAR     72  68  87 CALM      30.01F FOG
HUNTINGBURG *+ CLEAR     68  64  88 CALM      30.01F
WASHINGTON +   CLEAR     66  63  87 CALM      30.00F FOG

$$

INZ062-063-066-070>080-084-089>092-030800-
SOUTH CENTRAL AND SOUTHEAST INDIANA

CITY           SKY/WX    TMP DP  RH WIND       PRES   REMARKS
BLOOMINGTON    CLEAR     65  63  93 CALM      30.02F FOG
NORTH VERNON + CLEAR     70  70 100 CALM      30.02F FOG
SEYMOUR +      CLEAR     66  66 100 CALM      30.01F FOG

$$




USA.gov is the U.S. government's official web portal to all federal, state and local government web resources and services.